Other Public Products
Issued by NWS Grand Forks, ND

Home | Current Version | Previous Version | Text Only | Print | Product List | Glossary Off
Versions: 1 2 3 4 5 6 7 8 9 10 11 12 13 14 15 16 17 18 19 20 21 22 23 24 25 26 27 28 29 30 31 32 33 34 35 36 37 38 39 40 41 42 43 44 45 46 47 48 49 50

000
FPUS83 KFGF 111910
OPUFGF
PRAIRIE TO PINES WEATHER ROUNDUP
NATIONAL WEATHER SERVICE EASTERN NORTH DAKOTA/GRAND FORKS ND
200 PM CDT FRI JUL 11 2014

 **SATELLITE DATA USED TO AUGMENT SKY COVER AT AUTOMATED STATIONS**
 *****  WEATHER ACROSS EASTERN NORTH DAKOTA  *****

CITY           SKY/WX    TMP DP  RH WIND       PRES   REMARKS
GRAND FORKS    MOSUNNY   83  62  49 NW6       29.90R
GRAND FORKS AF SUNNY     80  60  49 N6        29.92R
GRAND CITY NWS   N/A     82 N/A N/A NW9         N/A
BUXTON         NOT AVBL
DEVILS LAKE    MOSUNNY   81  55  41 NW13      29.95S
FARGO          MOSUNNY   86  69  56 N7        29.90R HX  90
WAHPETON ARPT  PTCLDY    86  64  48 NW5       29.91S
$$

 *****  WEATHER ACROSS CENTRAL AND WESTERN NORTH DAKOTA  *****

CITY           SKY/WX    TMP DP  RH WIND       PRES   REMARKS
JAMESTOWN      SUNNY     82  61  48 N13       29.97R
BISMARCK       MOSUNNY   80  50  34 VRB3      30.04R
MINOT          SUNNY     74  53  48 W16       30.02S
MINOT AFB      SUNNY     74  55  50 NW18      30.02S
GARRISON         N/A     76  58  53 N7        30.04S
WILLISTON      SUNNY     78  52  40 N13       30.08R
DICKINSON      PTSUNNY   78  53  41 VRB6      30.07S
HETTINGER      MOSUNNY   82  57  42 N12       30.08R
$$

 *****  OTHER OBSERVATIONS NORTHEAST NORTH DAKOTA  *****

CITY           SKY/WX    TMP DP  RH WIND       PRES   REMARKS
WALHALLA       FAIR      81  57  44 W14G22      N/A
LANGDON        FAIR      79  55  44 W22       29.94S
CAVALIER       FAIR      81  55  41 W17G25    29.89S
GRAFTON        FAIR      82  54  36 NW15G21   29.89S
CANDO          FAIR      77  57  50 W16G22    29.97S
FORT TOTTEN    NOT AVBL
ROLLA            N/A     73  48  40 NW20G26   29.99R
RUGBY          FAIR      75  59  57 NW17G24   29.99S
 ***** THE ABOVE OBSERVATIONS ARE NON NWS ARE NOT QUALITY
        CONTROLLED AND MAY MIS-REPORT RAIN FOR SNOW...
$$

 *****  OTHER OBSERVATIONS SOUTHEAST NORTH DAKOTA *****

CITY           SKY/WX    TMP DP  RH WIND       PRES   REMARKS
COOPERSTOWN    NOT AVBL
VALLEY CITY    FAIR      82  63  51 N13       29.95S
OAKES          NOT AVBL
GWINNER        PTCLDY    86  68  54 N10       29.95R
BUFFALO        NOT AVBL
WYNDMERE       NOT AVBL
 ***** THE ABOVE OBSERVATIONS ARE NON NWS ARE NOT QUALITY
       CONTROLLED AND MAY MIS-REPORT RAIN FOR SNOW...
$$

  *****  WEATHER ACROSS NORTHERN MINNESOTA  *****

CITY           SKY/WX    TMP DP  RH WIND       PRES   REMARKS
FLAG ISLAND      N/A     77  55  47 W12       29.82S HAZE
WARROAD        MOSUNNY   81  64  57 W10G17    29.86R
ROSEAU         MOSUNNY   81  61  50 NW10G21   29.86S
HALLOCK        SUNNY     82  48  30 W16       29.87S
THF RVR FALLS  MOSUNNY   81  64  57 NW13G18   29.90S
HALSTAD          N/A     84  64  51 N13         N/A
FOSSTON        MOSUNNY   81  66  61 W12       29.91R
BAUDETTE       MOSUNNY   80  67  64 NW9       29.85R
WASKISH        NOT AVBL
CROOKSTON      SUNNY     82  66  57 NW12G17   29.91S
$$
  *****  WEATHER ACROSS CENTRAL AND WEST MINNESOTA  *****

CITY           SKY/WX    TMP DP  RH WIND       PRES   REMARKS
BEMIDJI        MOSUNNY   83  66  57 W13       29.89S
PARK RAPIDS    PTSUNNY   81  69  67 W8        29.91S
WADENA         SUNNY     81  70  69 W7        29.92S
DETROIT LAKES  MOSUNNY   81  70  69 NW10G16   29.94R
MOORHEAD       MOSUNNY   84  73  70 N8        29.91R HX  91
FERGUS FALLS   MOSUNNY   82  66  57 W7        29.91S
ELBOW LAKE     FAIR      82  70  65 NW6       29.93R
MORRIS MN      SUNNY     84  72  65 S5        29.93R
STAPLES        SUNNY     81  70  69 SW7       29.92F
WHEATON        SUNNY     82  70  65 NW5       29.93R
$$
  *****  WEATHER ELSEWHERE ACROSS MINNESOTA  *****

CITY           SKY/WX    TMP DP  RH WIND       PRES   REMARKS
DULUTH         CLOUDY    69  65  86 SW14      29.93S
INTRNTL FALLS  PTSUNNY   80  69  69 SW6       29.82F THUNDER
ELY            CLOUDY    68  64  88 SW8       29.90S
CLOQUET        CLOUDY    70  64  83 SW13G18   29.93S
BRAINERD       CLOUDY    78  69  73 S8        29.93R
HIBBING        CLOUDY    71  66  84 SW9       29.91R
ALEXANDRIA     CLOUDY    80  70  71 W6        29.96R
SAINT CLOUD    CLOUDY    74  67  78 S15       29.95S
MINNEAPOLIS    MOSUNNY   78  65  63 S14G22    29.96S
$$

  *****  WEATHER ACROSS SOUTH DAKOTA  *****

CITY           SKY/WX    TMP DP  RH WIND       PRES   REMARKS
SIOUX FALLS    CLOUDY    81  71  71 VRB3      29.96R
BROOKINGS      NOT AVBL
WATERTOWN      PTSUNNY   85  70  60 VRB7      29.94S
HURON          MOSUNNY   92  62  36 NE12      29.92R HX  92
SISSETON         N/A     87  69  54 N9        29.91R HX  91
ABERDEEN       MOSUNNY   84  68  58 N3        29.94R
MITCHELL       PTSUNNY   87  73  62 VRB6      29.93S HX  94
PIERRE         SUNNY     90  69  50 NE8       29.95S HX  94
MOBRIDGE       MOSUNNY   83  69  62 NE13      29.97R
RAPID CITY     MOSUNNY   86  64  47 N9        30.05S
$$

  *****  SOME WEATHER IN NEARBY STATES *****

CITY           SKY/WX    TMP DP  RH WIND       PRES   REMARKS
GLASGOW MT     PTSUNNY   74  51  44 W10       30.12S
GREAT FALLS MT CLOUDY    65  48  54 CALM      30.20F
CHEYENNE WY    MOSUNNY   82  49  31 VRB7      30.19F
SCOTTSBLUFF NE MOSUNNY   84  62  47 VRB6      30.07S
OMAHA NE       CLOUDY    78  68  71 S12       29.97F
DES MOINES IA  LGT RAIN  73  68  84 S15       30.01F
DAVENPORT IA   CLOUDY    80  65  59 SE16      30.10F
CHICAGO IL     PTSUNNY   79  50  36 S6        30.16F
EAU CLAIRE WI  MOSUNNY   75  63  66 S17G24    30.01S
LA CROSSE WI   CLOUDY    71  61  70 S12       30.02F
$$

  *****  SOME NATIONAL WEATHER *****

CITY           SKY/WX    TMP DP  RH WIND       PRES   REMARKS
LA GUARDIA NY  PTSUNNY   81  55  40 NE9       30.17F
RALEIGH NC     PTSUNNY   83  67  58 E7        30.19F
ATLANTA GA     PTSUNNY   82  68  62 S8        30.15S THUNDER
NEW ORLEANS LA MOSUNNY   92  69  47 N6        30.11F HX  97
OKLAHOMA CITY  SUNNY     90  65  43 S14G22    30.09F HX  92
ALBUQUERQUE NM MOSUNNY   88  50  27 VRB7      30.16F
SALT LAKE CITY CLOUDY    77  57  50 N7        30.12R
LOS ANGELES CA MOSUNNY   73  59  61 W13       30.02R
BOISE ID       SUNNY     90  50  25 VRB6      29.94F
SEATTLE WA     MOSUNNY   78  54  43 W7        29.98S
$$

*** WEATHER ACROSS MANITOBA...SASKATCHEWAN AND ONTARIO ***
                ***ONTARIO***

CITY           SKY/WX    TMP DP  RH WIND       PRES   REMARKS
GERALDTON      LGT RAIN  66  59  77 SW13      29.90
THUNDER BAY    CLOUDY    64  59  82 S13G22    29.90F
SIOUX LOOKOUT  PTSUNNY   64  63  94 SW8       29.80R THUNDER
TORONTO        MOSUNNY   75  52  43 SE9G18    30.22F
BIG TROUT LK   PTSUNNY   63  59  88 S13       29.60S
PICKLE LAKE    TSTM      61  59  94 S8        29.72F FOG
DRYDEN         PTSUNNY   70  57  64 W8        29.80R
KENORA         PTSUNNY   81  52  36 NW9G22    29.83S
$$
                *** MANITOBA***

CITY           SKY/WX    TMP DP  RH WIND       PRES   REMARKS
BRANDON        MOSUNNY   73  54  49 W25       29.95S
DAUPHIN        CLOUDY    70  54  56 W22G28    29.90R
ISLAND LAKE    PTSUNNY   73  52  46 W17G29    29.59S
PILOT MOUND      N/A     72  52  49 W15G24      N/A
THE PAS        NOT AVBL
THOMPSON       LGT RAIN  61  61 100 W26G37    29.51R
WINNIPEG       MOSUNNY   79  54  41 W20G28    29.85S
LYNN LAKE      CLOUDY    55  46  71 NW17G31   29.64R
CHURCHILL      PTSUNNY   70  54  56 SW10      29.39S
GILLAM         PTSUNNY   72  59  64 SW13      29.43
$$
                ***SASKATCHEWAN***

CITY           SKY/WX    TMP DP  RH WIND       PRES   REMARKS
ESTEVAN        MOSUNNY   70  54  56 NW15G22   30.06S
KINDERSLEY     MOSUNNY   68  48  49 W12       30.13F
LLOYDMINSTER   PTSUNNY   66  52  59 W14       30.09S
PRINCE ALBERT  MOSUNNY   68  52  56 NW20G28   29.98R
REGINA         MOSUNNY   70  54  56 NW16G25   30.07S
YORKTON        PTSUNNY   68  50  52 NW22G31   29.98R



USA.gov is the U.S. government's official web portal to all federal, state and local government web resources and services.